DW7098 Weather Reports


time (UTC)temp
C
wind
direction
speed
KPH
gust
KPH
rain 1hr
cm
rain 24hr
cm
rain mn
cm
humidity
%
barometer
mb
20260504213036 20 296 1.6 9.7 0.00 0.00 0.00
20260504203049 18 347 4.8 12.9 0.00 0.00 0.00
20260504200100 18 212 1.6 11.3 0.00 0.00 0.00
20260504193041 18 249 6.4 11.3 0.00 0.00 0.00
20260504190105 18 327 1.6 9.7 0.00 0.00 0.00
20260504183047 18 331 0.0 9.7 0.00 0.00 0.00
20260504173043 16 230 3.2 9.7 0.00 0.00 0.00
20260504170113 15 249 1.6 8.0 0.00 0.00 0.00
20260504090106 12 283 0.0 1.6 0.00 0.00 0.00
20260504043033 16 282 0.0 1.6 0.00 0.00 0.00
20260504033042 18 291 0.0 1.6 0.00 0.00 0.00
20260504030111 20 292 0.0 1.6 0.00 0.00 0.00
20260504023051 21 252 0.0 4.8 0.00 0.00 0.00
20260504013041 22 279 1.6 4.8 0.00 0.00 0.00
20260504010051 23 60 1.6 6.4 0.00 0.00 0.00
20260504003053 24 202 0.0 6.4 0.00 0.00 0.00
20260503233045 26 287 1.6 9.7 0.00 0.00 0.00
20260503230111 28 304 1.6 6.4 0.00 0.00 0.00
20260503223051 29 295 1.6 6.4 0.00 0.00 0.00
20260503220101 28 233 4.8 9.7 0.00 0.00 0.00